View from above orbital plane
|
View from above satellite
|
Ground track
|
The orbit data is extracted from the following two-line orbital elements,
1 43666U 18083E 21020.50703081 .00000968 00000-0 49718-4 0 9990
2 43666 97.4704 50.6601 0013674 330.4916 165.4065 15.18828690123554
Epoch (UTC): | 20 January 2021 12:10:07 |
Eccentricity: | 0.0013674 |
inclination: | 97.4704° |
perigee height: | 500 km |
apogee height: | 519 km |
right ascension of ascending node: | 50.6601° |
argument of perigee: | 330.4916° |
revolutions per day: | 15.18828690 |
mean anomaly at epoch: | 165.4065° |
orbit number at epoch: | 12355 |
The dashed part of the orbit path shows where the satellite is in the earth's shadow,
|
|